This demonstration page uses our WeatherBlox Daily Observations layout. Learn more.

Hourly Observations for December 29, 2015

Temp ( °F °C ) Dew Point ( °F °C ) Humidity (%) Winds ( mph kmh ) Pressure ( in mb ) Visibility ( mi km ) Precip ( " mm )
12:15 am 00:15 Cloudy with Rain 41 5 41 5 100 100 NNW 8 13 30.24 1024 2 3.218688 0.04 1.016
12:55 am 00:55 Cloudy with Rain 41 5 41 5 100 100 N 7 11 30.21 1023 3 4.828032 0.13 3.302
1:15 am 01:15 Cloudy with Light Rain 41 5 41 5 100 100 NNE 7 11 30.18 1022 4 6.437376 0.04 1.016
1:35 am 01:35 Cloudy with Light Rain 41 5 41 5 100 100 NNE 8 13 30.18 1022 5 8.04672 0.05 1.27
1:55 am 01:55 Cloudy with Light Rain 41 5 41 5 100 100 NNE 8 13 30.15 1021 5 8.04672 0.05 1.27
2:15 am 02:15 Cloudy with Light Rain 41 5 41 5 100 100 N 6 9 30.15 1021 3 4.828032 0.03 0.762
2:35 am 02:35 Cloudy with Light Rain 41 5 41 5 100 100 N 8 13 30.15 1021 3 4.828032 0.04 1.016
2:55 am 02:55 Cloudy with Heavy Rain 41 5 41 5 100 100 N 7 11 30.15 1021 2.5 4.02336 0.09 2.286
3:15 am 03:15 Cloudy with Rain 41 5 41 5 100 100 N 7 11 30.15 1021 3 4.828032 0.02 0.508
3:35 am 03:35 Cloudy with Rain 41 5 41 5 100 100 N 9 15 30.12 1020 2 3.218688 0.1 2.54
3:55 am 03:55 Cloudy with Light Rain 41 5 41 5 100 100 NNE 7 11 30.09 1019 10 16.09344 0.11 2.794
4:15 am 04:15 Cloudy with Light Rain 41 5 41 5 100 100 N 7 11 30.09 1019 4 6.437376 0.02 0.508
4:35 am 04:35 Cloudy with Light Rain 41 5 41 5 100 100 NNE 6 9 30.06 1018 4 6.437376 0.03 0.762
4:55 am 04:55 Cloudy with Light Rain 41 5 41 5 100 100 N 6 9 30.03 1017 5 8.04672 0.03 0.762
5:15 am 05:15 Cloudy with Mist and Fog 41 5 41 5 100 100 NNW 8 13 30.03 1017 4 6.437376 0 0
5:35 am 05:35 Cloudy with Mist and Fog 41 5 41 5 100 100 N 5 7 30.03 1017 2 3.218688 0 0
5:55 am 05:55 Cloudy with Light Drizzle 41 5 41 5 100 100 NNW 6 9 30.03 1017 2 3.218688 0.01 0.254
6:15 am 06:15 Cloudy with Light Drizzle 41 5 41 5 100 100 NNW 6 9 30.03 1017 1.75 2.816352 0 0
6:35 am 06:35 Cloudy with Mist and Fog 41 5 41 5 100 100 NNW 6 9 30.03 1017 1.75 2.816352 0 0
6:55 am 06:55 Cloudy with Rain 41 5 41 5 100 100 NW 8 13 30.03 1017 1.75 2.816352 0 0
7:15 am 07:15 Cloudy with Mist and Fog 43 6 43 6 100 100 NNW 6 9 30.03 1017 2 3.218688 0 0
7:35 am 07:35 Cloudy with Mist and Fog 43 6 43 6 100 100 NNW 5 7 30.03 1017 3 4.828032 0 0
7:55 am 07:55 Cloudy with Mist and Fog 43 6 43 6 100 100 undefined N/A 30.03 1017 2.5 4.02336 0 0
8:15 am 08:15 Cloudy with Mist and Fog 43 6 43 6 100 100 NNW 5 7 30.03 1017 1.75 2.816352 0 0
8:35 am 08:35 Cloudy with Mist and Fog 43 6 43 6 100 100 Calm 30.03 1017 2 3.218688 0 0
8:55 am 08:55 Cloudy with Mist and Fog 43 6 43 6 100 100 NW 5 7 30.03 1017 5 8.04672 0 0
9:15 am 09:15 Cloudy 43 6 43 6 100 100 Calm 30 1016 10 16.09344 0 0
9:35 am 09:35 Cloudy 43 6 43 6 100 100 Calm 30.03 1017 10 16.09344 0 0
9:55 am 09:55 Cloudy 45 7 45 7 100 100 Calm 30 1016 10 16.09344 0 0
10:15 am 10:15 Cloudy 45 7 45 7 100 100 Calm 30.03 1017 10 16.09344 0 0
10:35 am 10:35 Cloudy 46 8 46 8 100 100 Calm 30.03 1017 10 16.09344 0 0
10:55 am 10:55 Cloudy 46 8 46 8 100 100 Calm 30 1016 10 16.09344 0 0
11:15 am 11:15 Cloudy 46 8 46 8 100 100 Calm 30 1016 10 16.09344 0 0
11:35 am 11:35 Cloudy 48 9 46 8 94 94 Calm 30 1016 10 16.09344 0 0
11:55 am 11:55 Cloudy 50 10 48 9 94 94 Calm 29.97 1015 10 16.09344 0 0
12:15 pm 12:15 Cloudy 50 10 50 10 100 100 Calm 29.94 1014 10 16.09344 0 0
12:55 pm 12:55 Cloudy 52 11 50 10 94 94 Calm 29.94 1014 10 16.09344 0 0
1:15 pm 13:15 Cloudy 52 11 50 10 94 94 Calm 29.94 1014 10 16.09344 0 0
1:35 pm 13:35 Cloudy 52 11 50 10 94 94 Calm 29.94 1014 10 16.09344 0 0
1:55 pm 13:55 Cloudy 52 11 50 10 94 94 Calm 29.94 1014 10 16.09344 0 0
2:15 pm 14:15 Cloudy 52 11 50 10 94 94 Calm 29.94 1014 10 16.09344 0 0
2:35 pm 14:35 Cloudy 52 11 50 10 94 94 ESE 3 6 29.94 1014 10 16.09344 0 0
2:55 pm 14:55 Cloudy 52 11 50 10 94 94 Calm 29.97 1015 10 16.09344 0 0
3:15 pm 15:15 Cloudy 54 12 50 10 88 88 S 3 6 29.97 1015 10 16.09344 0 0
3:35 pm 15:35 Mostly Cloudy 52 11 50 10 94 94 Calm 29.97 1015 10 16.09344 0 0
3:55 pm 15:55 Partly Cloudy 52 11 50 10 94 94 Calm 29.97 1015 10 16.09344 0 0
4:15 pm 16:15 Sunny 52 11 50 10 94 94 Calm 30 1016 10 16.09344 0 0
4:35 pm 16:35 Partly Cloudy 52 11 52 11 100 100 undefined N/A 30 1016 10 16.09344 0 0
4:55 pm 16:55 Partly Cloudy 52 11 50 10 94 94 Calm 30.03 1017 10 16.09344 0 0
5:15 pm 17:15 Clear 52 11 50 10 94 94 Calm 30.03 1017 10 16.09344 0 0
5:35 pm 17:35 Clear 50 10 50 10 100 100 Calm 30.03 1017 10 16.09344 0 0
5:55 pm 17:55 Clear 50 10 50 10 100 100 Calm 30.09 1019 10 16.09344 0 0
6:15 pm 18:15 Clear 50 10 50 10 100 100 Calm 30.09 1019 10 16.09344 0 0
6:35 pm 18:35 Clear 46 8 46 8 100 100 Calm 30.09 1019 10 16.09344 0 0
6:55 pm 18:55 Clear 48 9 48 9 100 100 Calm 30.12 1020 10 16.09344 0 0
7:15 pm 19:15 Clear 46 8 46 8 100 100 Calm 30.12 1020 10 16.09344 0 0
7:35 pm 19:35 Clear 46 8 46 8 100 100 Calm 30.12 1020 10 16.09344 0 0
7:55 pm 19:55 Partly Cloudy 46 8 46 8 100 100 Calm 30.15 1021 10 16.09344 0 0
8:15 pm 20:15 Clear 46 8 46 8 100 100 N 5 7 30.15 1021 10 16.09344 0 0
8:35 pm 20:35 Clear 46 8 46 8 100 100 NNE 3 6 30.15 1021 10 16.09344 0 0
8:55 pm 20:55 Clear 46 8 46 8 100 100 NE 3 6 30.15 1021 10 16.09344 0 0
9:15 pm 21:15 Clear 46 8 46 8 100 100 Calm 30.18 1022 10 16.09344 0 0
9:35 pm 21:35 Clear 46 8 46 8 100 100 Calm 30.18 1022 10 16.09344 0 0
9:55 pm 21:55 Mostly Cloudy 46 8 46 8 100 100 Calm 30.18 1022 10 16.09344 0 0
10:15 pm 22:15 Partly Cloudy 46 8 46 8 100 100 NNE 3 6 30.18 1022 10 16.09344 0 0
10:35 pm 22:35 Mostly Cloudy 46 8 46 8 100 100 Calm 30.18 1022 10 16.09344 0 0
10:55 pm 22:55 Cloudy 46 8 46 8 100 100 Calm 30.18 1022 7 11.265408 0 0
11:15 pm 23:15 Cloudy with Mist and Fog 45 7 45 7 100 100 Calm 30.18 1022 5 8.04672 0 0
11:35 pm 23:35 Cloudy with Mist and Fog 45 7 45 7 100 100 Calm 30.21 1023 1 1.609344 0 0
11:55 pm 23:55 Cloudy with Fog 45 7 45 7 100 100 Calm 30.21 1023 0.25 0.402336 0 0

Powered by AerisWeather